Content
SEND FEEDBACK

Daily
Averages
Monthly
Summary
United States of America

UMATAC, GUAM


Home > North America > United States > Guam
Elevation: 190 feet     Latitude: 13 17N     Longitude: 144 40E

WEATHER
 
SELECT A DAY
Number of Records: 342,038;   Date Range: 1/1/95 - 7/29/14
 
SHARE

PRINT THIS DATA

[ ← Previous Day ]
WEATHER ALMANAC - JANUARY 28, 2013
[ Next Day → ]
[ °C ]   °F
Weather ElementAverageHighLow
Temperature78.6 °F82.6 °F (1:55 pm)75.4 °F (6:55 am)
Dewpoint67.3 °F69.8 °F (12:55 pm)63.7 °F (6:55 am)
Humidity68.3 %74 % (11:09 pm)61 % (2:55 pm)
Barometer29.89 in29.94 in (8:55 am)29.83 in (2:55 pm)
Wind Speed14.7 mph19.6 mph (11:55 am)
Wind Gust23 mph (10:55 am)
Weather ElementAverage
Visibility10 mi
Wind DirectionENE (61 °)

Weather ElementTotal
Precipitation---
Cooling Degree Days14 (Base 65)
Growing Degree Days29 (Base 50)
Averaged from 31 records on January 28, 2013
WEATHER CONDITIONS BREAKOUT
WIND DIRECTION BREAKOUT
WEATHER BY HOUR - JANUARY 28, 2013
[ °C ]   °F
Local TimeTemperatureDewpointHumidityBarometerVisibilityWind DirectionWind SpeedGust SpeedPrecipitationEventsConditions
1:55 AM76.3 °F65.3 °F69 %29.89 in10.0 miENE (60°)15.0 mphClear
2:55 AM76.1 °F66.0 °F71 %29.89 in10.0 miENE (60°)15.0 mphPartly Cloudy
3:55 AM76.1 °F66.9 °F73 %29.88 in10.0 miNE (50°)13.8 mphPartly Cloudy
4:55 AM76.1 °F65.7 °F70 %29.89 in10.0 miNE (50°)13.8 mphPartly Cloudy
5:55 AM75.9 °F66.4 °F72 %29.90 in10.0 miENE (70°)12.7 mphPartly Cloudy
6:55 AM75.4 °F63.7 °F67 %29.92 in10.0 miENE (60°)12.7 mphPartly Cloudy
7:55 AM76.8 °F64.4 °F65 %29.92 in10.0 miENE (60°)16.1 mphClear
8:55 AM78.8 °F67.6 °F68 %29.94 in10.0 miENE (70°)16.1 mphClear
9:55 AM81.0 °F69.3 °F67 %29.93 in10.0 miENE (70°)15.0 mphClear
10:55 AM81.3 °F69.6 °F67 %29.92 in10.0 miENE (70°)15.0 mph23.0 mphPartly Cloudy
11:55 AM81.3 °F69.3 °F67 %29.89 in10.0 miENE (70°)19.6 mphPartly Cloudy
12:55 PM81.1 °F69.8 °F68 %29.87 in10.0 miEast (80°)16.1 mphScattered Clouds
1:07 PM82.4 °F69.8 °F66 %29.87 in10.0 miENE (70°)17.3 mphMostly Cloudy
1:33 PM82.4 °F69.8 °F66 %29.86 in10.0 miEast (80°)17.3 mphScattered Clouds
1:41 PM80.6 °F68.0 °F65 %29.86 in10.0 miENE (60°)15.0 mphMostly Cloudy
1:50 PM82.4 °F69.8 °F66 %29.85 in10.0 miEast (80°)15.0 mph20.7 mphScattered Clouds
1:55 PM82.6 °F69.1 °F64 %29.85 in10.0 miENE (70°)15.0 mph20.7 mphScattered Clouds
2:55 PM82.2 °F67.5 °F61 %29.83 in10.0 miEast (80°)15.0 mph21.9 mphPartly Cloudy
3:55 PM81.0 °F67.1 °F63 %29.84 in10.0 miNE (50°)15.0 mphScattered Clouds
4:55 PM80.4 °F67.8 °F65 %29.86 in10.0 miENE (60°)13.8 mphScattered Clouds
5:55 PM77.9 °F66.4 °F68 %29.87 in10.0 miNE (50°)12.7 mphScattered Clouds
6:55 PM76.5 °F65.3 °F68 %29.88 in10.0 miENE (60°)15.0 mphPartly Cloudy
7:55 PM76.5 °F64.8 °F67 %29.89 in10.0 miENE (60°)15.0 mphClear
8:55 PM76.1 °F66.0 °F71 %29.91 in10.0 miENE (60°)12.7 mphPartly Cloudy
9:55 PM77.2 °F66.4 °F69 %29.92 in10.0 miNE (40°)17.3 mphScattered Clouds
10:55 PM77.2 °F67.6 °F72 %29.92 in10.0 miNE (50°)16.1 mphMostly Cloudy
11:09 PM77.0 °F68.0 °F74 %29.92 in10.0 miNE (50°)12.7 mphMostly Cloudy
11:12 PM77.0 °F68.0 °F74 %29.92 in10.0 miNE (50°)13.8 mphMostly Cloudy
11:29 PM77.0 °F68.0 °F74 %29.91 in10.0 miNE (50°)13.8 mphMostly Cloudy
11:40 PM77.0 °F66.2 °F69 %29.91 in10.0 miNE (50°)12.7 mphMostly Cloudy
11:55 PM76.3 °F66.7 °F72 %29.91 in10.0 miNE (50°)10.4 mphPartly Cloudy
Hourly data recorded from PGUA, located miles away from Umatac, Guam







STORIES FROM OUR PARTNERS